Location: Oriwa
(40.7500°S, 175.3333°E)
Time: 09:50:40
(UTC+00:00)

USA 215 - Pass Details

Date: 03 February 2023
Orbit: 1100 x 1107 km, 123.0° (Epoch: 18 March)

Event Time Altitude Azimuth Distance (km) Brightness Sun altitude
Rises 12:18:09 0° 135° (SE) 3,958 6.7 -32.6°
Reaches altitude 10° 12:20:49 10° 142° (SE) 2,997 6.1 -32.7°
Maximum altitude 12:26:49 39° 207° (SSW) 1,628 4.5 -32.7°
Drops below altitude 10° 12:32:49 10° 272° (W) 2,983 5.5 -32.7°
Enters shadow 12:33:34 - 275° (W) 3,250 5.7 -32.7°
